Cherry Point, NC

6:36 PM EDT on June 28, 2017 (GMT -0400)
Cherry Point Marine Corps Air Station

Weather History for KNKT - December, 2013

Change the Weather History Date:

Wednesday, December 11, 2013

  Actual Average Record
Temperature  
Mean Temperature 39 °F -  
Max Temperature 48 °F 57 °F 72 °F (2012)
Min Temperature 30 °F 39 °F 28 °F (2006)
Degree Days  
Heating Degree Days 26    
Moisture  
Dew Point 26 °F    
Average Humidity 60    
Maximum Humidity 85    
Minimum Humidity 37    
Precipitation  
Precipitation 0.00 in - - ()
Sea Level Pressure  
Sea Level Pressure 30.37 in    
Wind  
Wind Speed 7 mph (North)    
Max Wind Speed 10 mph    
Max Gust Speed -    
Visibility 10 miles    
Events      
Averages and records for this station are not official NWS values.
T = Trace of Precipitation, MM = Missing Value Source: NWS Daily Summary

Daily Weather History Graph

Daily Weather History Graph

Search for Another Location

Airport or City:

Trip Planner

Search our weather history database for the weather conditions in past years. The results will help you decide how hot, cold, wet, or windy it might be!

Date:

Astronomy

Dec. 11, 2013 Rise Set
Actual Time 7:05 AM EST 4:56 PM EST
Civil Twilight 6:37 AM EST 5:24 PM EST
Nautical Twilight 6:05 AM EST 5:56 PM EST
Astronomical Twilight 5:34 AM EST 6:26 PM EST
Moon 1:19 PM EST (12/11) 1:35 AM EST (12/11)
Length of Visible Light 10h 47m
Length of Day
9h 51m
Waxing Gibbous, 71% of the Moon is Illuminated
Dec 11
Waxing Gibbous
Dec 17
Full
Dec 25
Last Quarter
Jan 1
New
Jan 7
First Quarter

Hourly Weather History & Observations

Time (EST) Temp. Windchill Dew Point Humidity Pressure Visibility Wind Dir Wind Speed Gust Speed Precip Events Conditions
12:54 AM 39.0 °F 32.8 °F 30.9 °F 73% 30.33 in 10.0 mi NW 9.2 mph - N/A   Clear
1:54 AM 37.9 °F 30.9 °F 28.0 °F 68% 30.33 in 10.0 mi NNW 10.4 mph - N/A   Clear
2:54 AM 39.0 °F 32.3 °F 26.1 °F 60% 30.35 in 10.0 mi North 10.4 mph - N/A   Clear
3:54 AM 37.0 °F 31.0 °F 25.0 °F 62% 30.35 in 10.0 mi North 8.1 mph - N/A   Clear
4:54 AM 37.0 °F 32.4 °F 23.0 °F 57% 30.36 in 10.0 mi North 5.8 mph - N/A   Clear
5:54 AM 30.0 °F - 26.1 °F 85% 30.39 in 10.0 mi Calm Calm - N/A   Clear
6:54 AM 36.0 °F 29.6 °F 23.0 °F 59% 30.41 in 10.0 mi North 8.1 mph - N/A   Partly Cloudy
7:54 AM 37.9 °F 31.5 °F 23.0 °F 55% 30.45 in 10.0 mi North 9.2 mph - N/A   Partly Cloudy
8:54 AM 41.0 °F 34.7 °F 23.0 °F 49% 30.45 in 10.0 mi North 10.4 mph - N/A   Clear
9:54 AM 43.0 °F 37.2 °F 23.0 °F 45% 30.48 in 10.0 mi North 10.4 mph - N/A   Clear
10:54 AM 44.1 °F 39.0 °F 21.9 °F 42% 30.47 in 7.0 mi NNE 9.2 mph - N/A   Clear
11:54 AM 46.0 °F 43.1 °F 21.0 °F 37% 30.43 in 10.0 mi ENE 5.8 mph - N/A   Partly Cloudy
12:54 PM 46.9 °F - 21.9 °F 37% 30.39 in 7.0 mi Calm Calm - N/A   Partly Cloudy
1:54 PM 48.0 °F - 24.1 °F 39% 30.36 in 7.0 mi Calm Calm - N/A   Partly Cloudy
2:54 PM 48.9 °F - 24.1 °F 38% 30.33 in 10.0 mi NE 6.9 mph - N/A   Clear
3:54 PM 48.9 °F - 25.0 °F 39% 30.34 in 10.0 mi NE 3.5 mph - N/A   Clear
4:54 PM 45.0 °F 43.5 °F 28.0 °F 52% 30.34 in 10.0 mi NE 3.5 mph - N/A   Clear
5:54 PM 39.0 °F - 30.9 °F 73% 30.34 in 10.0 mi Calm Calm - N/A   Clear
6:54 PM 37.0 °F - 30.0 °F 76% 30.34 in 10.0 mi Calm Calm - N/A   Clear
7:54 PM 34.0 °F - 28.0 °F 79% 30.33 in - Calm Calm - N/A   Clear
8:54 PM 37.0 °F 34.5 °F 32.0 °F 82% 30.34 in 10.0 mi North 3.5 mph - N/A   Clear
9:54 PM 37.0 °F 33.3 °F 32.0 °F 82% 30.30 in 10.0 mi SE 4.6 mph - N/A   Clear
10:54 PM 37.0 °F 34.5 °F 30.9 °F 79% 30.31 in 10.0 mi SW 3.5 mph - N/A   Clear
11:54 PM 36.0 °F - 30.9 °F 82% 30.30 in 10.0 mi Calm Calm - N/A   Partly Cloudy